This is the latest recevied weather packets stored in our database for station/object KD9WYV. If no packets are shown the sender has not sent any weather packets the latest 1 day(s).
| Time | Temp. | Humidity | Pressure | Rain* | Wind** | Luminosity | Snow |
|---|---|---|---|---|---|---|---|
| 1777989656 | 15° C | 89% | 1008.7 hPa | 0 mm | 1.34 m/s, 321° | 80 W/m² | - |
| 1777989352 | 15° C | 89% | 1008.8 hPa | 0 mm | 0.89 m/s, 272° | 79 W/m² | - |
| 1777989049 | 15° C | 88% | 1008.9 hPa | 0 mm | 3.58 m/s, 259° | 86 W/m² | - |
| 1777988744 | 15° C | 88% | 1009 hPa | 0 mm | 1.34 m/s, 290° | 72 W/m² | - |
| 1777988442 | 15° C | 88% | 1008.8 hPa | 0 mm | 1.34 m/s, 231° | 86 W/m² | - |
| 1777988139 | 15° C | 88% | 1008.9 hPa | 0 mm | 0.45 m/s, 297° | 119 W/m² | - |
| 1777987835 | 15° C | 89% | 1008.9 hPa | 0 mm | 2.68 m/s, 292° | 126 W/m² | - |
| 1777987532 | 15° C | 88% | 1008.8 hPa | 0 mm | 0.89 m/s, 327° | 111 W/m² | - |
| 1777987229 | 15° C | 88% | 1008.7 hPa | 0 mm | 0.45 m/s, 293° | 84 W/m² | - |
| 1777986925 | 15° C | 87% | 1008.6 hPa | 0 mm | 2.24 m/s, 241° | 79 W/m² | - |
| 1777986624 | 15° C | 88% | 1008.3 hPa | 0 mm | 3.13 m/s, 255° | 159 W/m² | - |
| 1777986321 | 15° C | 89% | 1008.3 hPa | 0 mm | 2.68 m/s, 272° | 165 W/m² | - |
| 1777986020 | 14.44° C | 89% | 1008.1 hPa | 0 mm | 1.34 m/s, 212° | 225 W/m² | - |
| 1777985716 | 14.44° C | 90% | 1008.2 hPa | 0 mm | 2.24 m/s, 306° | 170 W/m² | - |
| 1777985413 | 14.44° C | 89% | 1008.2 hPa | 0 mm | 1.79 m/s, 269° | 74 W/m² | - |
| 1777985109 | 14.44° C | 89% | 1008.3 hPa | 0 mm | 0.89 m/s, 274° | 64 W/m² | - |
| 1777984806 | 14.44° C | 90% | 1008.3 hPa | 0 mm | 0.89 m/s, 261° | 89 W/m² | - |
| 1777984503 | 14.44° C | 90% | 1008.2 hPa | 0 mm | 0.89 m/s, 212° | 109 W/m² | - |
| 1777984198 | 14.44° C | 90% | 1008 hPa | 0 mm | 1.34 m/s, 314° | 157 W/m² | - |
| 1777983896 | 14.44° C | 91% | 1008.1 hPa | 0 mm | 0.89 m/s, 216° | 98 W/m² | - |
| 1777983592 | 14.44° C | 91% | 1008.1 hPa | 0 mm | 0.45 m/s, 311° | 42 W/m² | - |
| 1777983289 | 13.89° C | 91% | 1008.2 hPa | 0 mm | 2.68 m/s, 288° | 94 W/m² | - |
| 1777982985 | 13.89° C | 92% | 1008 hPa | 0 mm | 1.34 m/s, 185° | 109 W/m² | - |
| 1777982682 | 13.89° C | 92% | 1008 hPa | 0 mm | 1.34 m/s, 236° | 109 W/m² | - |
| 1777982381 | 13.89° C | 93% | 1008.1 hPa | 0 mm | 0.45 m/s, 300° | 96 W/m² | - |
* Rain latest hour (hover to see other rain measurements)
** Current wind speed in m/s (hover to see current wind gust speed)